ACA1194 CYQT-CYYZ

Flight info

Callsign ACA1194
Flight time 1h 15m
Altitude 37000
Route OTNIK BOXUM7
Aircraft B38M/M-SDE1FGHILORVWXY/HB1

Departure

Time 2026-05-09 02:44
Airport Thunder Bay International Airport (CYQT)

Arrival

Time 2026-05-09 03:59
Airport Toronto Pearson International Airport (CYYZ)
Time Latitude Longitude Altitude Speed Heading
2026-05-09 02:16 48.37184 -89.31334 658 ft 0 kts 126°
2026-05-09 02:34 48.37191 -89.31347 658 ft 4 kts 126°
2026-05-09 02:34 48.37206 -89.31380 658 ft 4 kts 117°
2026-05-09 02:35 48.37213 -89.31417 658 ft 4 kts 84°
2026-05-09 02:35 48.37204 -89.31450 658 ft 3 kts 41°
2026-05-09 02:35 48.37197 -89.31458 658 ft 0 kts 38°
2026-05-09 02:37 48.37198 -89.31457 658 ft 1 kts 36°
2026-05-09 02:37 48.37209 -89.31445 658 ft 3 kts 36°
2026-05-09 02:38 48.37235 -89.31416 658 ft 6 kts 36°
2026-05-09 02:38 48.37276 -89.31369 658 ft 9 kts 38°
2026-05-09 02:38 48.37331 -89.31303 658 ft 1 kts 38°
2026-05-09 02:40 48.37334 -89.31300 658 ft 2 kts 38°
2026-05-09 02:40 48.37364 -89.31264 658 ft 11 kts 38°
2026-05-09 02:40 48.37445 -89.31194 658 ft 15 kts 11°
2026-05-09 02:40 48.37541 -89.31169 659 ft 12 kts 49°
2026-05-09 02:41 48.37568 -89.31049 660 ft 12 kts 73°
2026-05-09 02:41 48.37595 -89.30921 661 ft 14 kts 71°
2026-05-09 02:41 48.37630 -89.30764 660 ft 18 kts 71°
2026-05-09 02:41 48.37657 -89.30587 659 ft 11 kts 89°
2026-05-09 02:42 48.37674 -89.30564 659 ft 2 kts 348°
2026-05-09 02:42 48.37678 -89.30579 659 ft 1 kts 269°
2026-05-09 02:42 48.37674 -89.30591 659 ft 2 kts 242°
2026-05-09 02:42 48.37662 -89.30628 659 ft 5 kts 247°
2026-05-09 02:43 48.37644 -89.30696 659 ft 9 kts 248°
2026-05-09 02:43 48.37598 -89.30898 661 ft 53 kts 252°
2026-05-09 02:43 48.37370 -89.31860 659 ft 139 kts 250°
2026-05-09 02:43 48.37000 -89.33500 966 ft 182 kts 251°
2026-05-09 02:44 48.36559 -89.35334 1988 ft 177 kts 250°
2026-05-09 02:44 48.36158 -89.37040 3046 ft 176 kts 255°
2026-05-09 02:44 48.35749 -89.38889 3571 ft 199 kts 251°
2026-05-09 02:44 48.34930 -89.40692 3584 ft 222 kts 221°
2026-05-09 02:45 48.33476 -89.41620 3596 ft 239 kts 189°
2026-05-09 02:45 48.31772 -89.41272 3677 ft 260 kts 160°
2026-05-09 02:45 48.30282 -89.39670 3765 ft 269 kts 133°
2026-05-09 02:45 48.29134 -89.37401 3920 ft 276 kts 127°
2026-05-09 02:46 48.28021 -89.35029 4049 ft 279 kts 126°
2026-05-09 02:46 48.26919 -89.32627 4202 ft 281 kts 124°
2026-05-09 02:46 48.26017 -89.30027 4351 ft 282 kts 116°
2026-05-09 02:46 48.25164 -89.27411 4663 ft 283 kts 118°
2026-05-09 02:47 48.24247 -89.24773 5531 ft 284 kts 119°
2026-05-09 02:47 48.23292 -89.22134 6630 ft 291 kts 120°
2026-05-09 02:47 48.22300 -89.19452 7693 ft 297 kts 121°
2026-05-09 02:47 48.21276 -89.16717 8705 ft 304 kts 122°
2026-05-09 02:48 48.20221 -89.13929 9713 ft 311 kts 123°
2026-05-09 02:48 48.19135 -89.11072 10553 ft 322 kts 123°
2026-05-09 02:48 48.18388 -89.09108 10963 ft 333 kts 122°
2026-05-09 02:48 48.17216 -89.06038 11674 ft 346 kts 122°
2026-05-09 02:49 48.16000 -89.02856 12446 ft 356 kts 122°
2026-05-09 02:49 48.14754 -88.99601 13308 ft 363 kts 122°
2026-05-09 02:49 48.13492 -88.96305 14123 ft 368 kts 122°
2026-05-09 02:49 48.12206 -88.92955 14900 ft 373 kts 122°
2026-05-09 02:50 48.10905 -88.89567 15665 ft 378 kts 122°
2026-05-09 02:50 48.09153 -88.85015 16668 ft 384 kts 121°
2026-05-09 02:50 48.08247 -88.82663 17160 ft 388 kts 121°
2026-05-09 02:50 48.06892 -88.79150 17901 ft 393 kts 121°
2026-05-09 02:51 48.05518 -88.75596 18528 ft 397 kts 121°
2026-05-09 02:51 48.04149 -88.72057 19187 ft 400 kts 121°
2026-05-09 02:51 48.02754 -88.68455 19864 ft 402 kts 121°
2026-05-09 02:51 48.01345 -88.64821 20485 ft 406 kts 121°
2026-05-09 02:52 47.99921 -88.61153 21069 ft 409 kts 121°
2026-05-09 02:52 47.98478 -88.57443 21646 ft 414 kts 122°
2026-05-09 02:52 47.97026 -88.53714 22242 ft 417 kts 122°
2026-05-09 02:52 47.95556 -88.49943 22827 ft 421 kts 122°
2026-05-09 02:53 47.94074 -88.46148 23374 ft 425 kts 122°
2026-05-09 02:53 47.92579 -88.42325 23869 ft 428 kts 122°
2026-05-09 02:53 47.91074 -88.38485 24363 ft 430 kts 122°
2026-05-09 02:53 47.89562 -88.34627 24836 ft 433 kts 122°
2026-05-09 02:54 47.88035 -88.30740 25332 ft 436 kts 122°
2026-05-09 02:54 47.86521 -88.26890 25795 ft 438 kts 122°
2026-05-09 02:54 47.84974 -88.22962 26262 ft 441 kts 122°
2026-05-09 02:54 47.83418 -88.19018 26709 ft 443 kts 122°
2026-05-09 02:55 47.81844 -88.15033 27154 ft 446 kts 123°
2026-05-09 02:55 47.80268 -88.11049 27582 ft 448 kts 123°
2026-05-09 02:55 47.78675 -88.07030 28016 ft 451 kts 123°
2026-05-09 02:55 47.77071 -88.02986 28407 ft 453 kts 123°
2026-05-09 02:56 47.75484 -87.98994 28833 ft 456 kts 123°
2026-05-09 02:56 47.73863 -87.94920 29235 ft 458 kts 123°
2026-05-09 02:56 47.72231 -87.90826 29625 ft 461 kts 123°
2026-05-09 02:56 47.70590 -87.86714 29941 ft 465 kts 123°
2026-05-09 02:57 47.68932 -87.82566 30211 ft 468 kts 123°
2026-05-09 02:57 47.67263 -87.78398 30530 ft 470 kts 123°
2026-05-09 02:57 47.65584 -87.74212 30834 ft 473 kts 123°
2026-05-09 02:57 47.63916 -87.70060 31130 ft 476 kts 123°
2026-05-09 02:58 47.62215 -87.65832 31428 ft 478 kts 123°
2026-05-09 02:58 47.60507 -87.61591 31724 ft 481 kts 123°
2026-05-09 02:58 47.58784 -87.57322 32015 ft 483 kts 123°
2026-05-09 02:58 47.57050 -87.53032 32309 ft 485 kts 123°
2026-05-09 02:59 47.55309 -87.48732 32581 ft 488 kts 123°
2026-05-09 02:59 47.53561 -87.44421 32883 ft 489 kts 123°
2026-05-09 02:59 47.51807 -87.40102 33173 ft 492 kts 123°
2026-05-09 02:59 47.50034 -87.35744 33466 ft 493 kts 123°
2026-05-09 03:00 47.48263 -87.31397 33830 ft 493 kts 123°
2026-05-09 03:00 47.46491 -87.27055 34130 ft 493 kts 123°
2026-05-09 03:00 47.44715 -87.22711 34418 ft 494 kts 123°
2026-05-09 03:00 47.42959 -87.18419 34699 ft 494 kts 123°
2026-05-09 03:01 47.41182 -87.14086 34978 ft 494 kts 123°
2026-05-09 03:01 47.39377 -87.09691 35296 ft 494 kts 123°
2026-05-09 03:01 47.37616 -87.05410 35586 ft 494 kts 123°
2026-05-09 03:01 47.35832 -87.01080 35884 ft 494 kts 123°
2026-05-09 03:02 47.34044 -86.96747 36143 ft 494 kts 123°
2026-05-09 03:02 47.32255 -86.92418 36455 ft 494 kts 123°
2026-05-09 03:02 47.30463 -86.88090 36671 ft 495 kts 123°
2026-05-09 03:03 47.26869 -86.79430 36669 ft 494 kts 123°
2026-05-09 03:03 47.23285 -86.70820 36692 ft 494 kts 123°
2026-05-09 03:04 47.19690 -86.62211 36695 ft 493 kts 123°
2026-05-09 03:04 47.16090 -86.53617 36686 ft 493 kts 123°
2026-05-09 03:05 47.12483 -86.45034 36678 ft 493 kts 124°
2026-05-09 03:05 47.08873 -86.36469 36696 ft 493 kts 124°
2026-05-09 03:06 47.05279 -86.27971 36702 ft 493 kts 124°
2026-05-09 03:06 47.01657 -86.19431 36696 ft 493 kts 124°
2026-05-09 03:07 46.98027 -86.10900 36698 ft 493 kts 124°
2026-05-09 03:07 46.94390 -86.02378 36697 ft 493 kts 124°
2026-05-09 03:08 46.90768 -85.93917 36696 ft 493 kts 124°
2026-05-09 03:08 46.87119 -85.85420 36697 ft 493 kts 124°
2026-05-09 03:09 46.83462 -85.76931 36699 ft 493 kts 124°
2026-05-09 03:09 46.79800 -85.68458 36703 ft 493 kts 125°
2026-05-09 03:10 46.76133 -85.59995 36707 ft 493 kts 125°
2026-05-09 03:10 46.72454 -85.51533 36705 ft 493 kts 125°
2026-05-09 03:11 46.68770 -85.43086 36715 ft 493 kts 125°
2026-05-09 03:11 46.65106 -85.34708 36713 ft 493 kts 125°
2026-05-09 03:12 46.61413 -85.26291 36716 ft 493 kts 125°
2026-05-09 03:12 46.57715 -85.17888 36716 ft 493 kts 125°
2026-05-09 03:13 46.52151 -85.05292 36722 ft 493 kts 125°
2026-05-09 03:13 46.48435 -84.96911 36730 ft 493 kts 125°
2026-05-09 03:14 46.44732 -84.88586 36723 ft 493 kts 126°
2026-05-09 03:14 46.41001 -84.80220 36748 ft 494 kts 126°
2026-05-09 03:15 46.37258 -84.71856 36757 ft 495 kts 126°
2026-05-09 03:15 46.33506 -84.63494 36771 ft 495 kts 126°
2026-05-09 03:16 46.29750 -84.55150 36776 ft 495 kts 126°
2026-05-09 03:16 46.25983 -84.46805 36775 ft 495 kts 126°
2026-05-09 03:17 46.22239 -84.38538 36759 ft 495 kts 126°
2026-05-09 03:17 46.18445 -84.30182 36760 ft 497 kts 126°
2026-05-09 03:18 46.14649 -84.21850 36760 ft 497 kts 126°
2026-05-09 03:18 46.10847 -84.13527 36764 ft 497 kts 126°
2026-05-09 03:19 46.07060 -84.05262 36773 ft 497 kts 126°
2026-05-09 03:19 46.03242 -83.96954 36778 ft 497 kts 127°
2026-05-09 03:20 45.99418 -83.88658 36762 ft 498 kts 127°
2026-05-09 03:20 45.95577 -83.80350 36778 ft 498 kts 127°
2026-05-09 03:21 45.91734 -83.72061 36776 ft 498 kts 127°
2026-05-09 03:21 45.87883 -83.63778 36773 ft 498 kts 127°
2026-05-09 03:22 45.84046 -83.55553 36776 ft 498 kts 127°
2026-05-09 03:22 45.80182 -83.47292 36780 ft 498 kts 127°
2026-05-09 03:23 45.76312 -83.39042 36774 ft 499 kts 127°
2026-05-09 03:23 45.72427 -83.30785 36787 ft 499 kts 127°
2026-05-09 03:24 45.68565 -83.22600 36790 ft 498 kts 127°
2026-05-09 03:24 45.64676 -83.14382 36789 ft 498 kts 127°
2026-05-09 03:25 45.60785 -83.06184 36796 ft 498 kts 127°
2026-05-09 03:25 45.56913 -82.98048 36797 ft 498 kts 127°
2026-05-09 03:26 45.53006 -82.89865 36795 ft 499 kts 128°
2026-05-09 03:26 45.49106 -82.81718 36795 ft 499 kts 128°
2026-05-09 03:27 45.45188 -82.73558 36805 ft 499 kts 128°
2026-05-09 03:27 45.41265 -82.65409 36804 ft 499 kts 128°
2026-05-09 03:28 45.37332 -82.57264 36803 ft 499 kts 128°
2026-05-09 03:28 45.33396 -82.49136 36810 ft 499 kts 128°
2026-05-09 03:29 45.29465 -82.41042 36809 ft 500 kts 128°
2026-05-09 03:29 45.25512 -82.32924 36808 ft 500 kts 128°
2026-05-09 03:30 45.21551 -82.24814 36811 ft 499 kts 129°
2026-05-09 03:30 45.17592 -82.16732 36812 ft 499 kts 129°
2026-05-09 03:31 45.13648 -82.08700 36810 ft 499 kts 129°
2026-05-09 03:31 45.10373 -82.02050 36786 ft 499 kts 129°
2026-05-09 03:32 45.06394 -81.93991 36813 ft 500 kts 129°
2026-05-09 03:32 45.02411 -81.85946 36817 ft 499 kts 129°
2026-05-09 03:33 44.98455 -81.77977 36813 ft 494 kts 129°
2026-05-09 03:33 44.94502 -81.70038 36711 ft 495 kts 129°
2026-05-09 03:34 44.92522 -81.66068 36377 ft 492 kts 129°
2026-05-09 03:34 44.90580 -81.62179 35993 ft 488 kts 129°
2026-05-09 03:34 44.88632 -81.58288 35594 ft 484 kts 129°
2026-05-09 03:34 44.86696 -81.54423 35174 ft 482 kts 130°
2026-05-09 03:35 44.84768 -81.50579 34812 ft 480 kts 130°
2026-05-09 03:35 44.82843 -81.46747 34441 ft 477 kts 130°
2026-05-09 03:35 44.80928 -81.42940 34087 ft 475 kts 130°
2026-05-09 03:35 44.79020 -81.39151 33706 ft 472 kts 130°
2026-05-09 03:36 44.77125 -81.35393 33272 ft 469 kts 130°
2026-05-09 03:36 44.75241 -81.31661 32838 ft 465 kts 130°
2026-05-09 03:36 44.73383 -81.27987 32145 ft 458 kts 130°
2026-05-09 03:36 44.72159 -81.25569 31569 ft 457 kts 130°
2026-05-09 03:37 44.70317 -81.21934 30703 ft 456 kts 131°
2026-05-09 03:37 44.68480 -81.18311 29846 ft 455 kts 131°
2026-05-09 03:37 44.66642 -81.14691 28863 ft 454 kts 130°
2026-05-09 03:37 44.64216 -81.09922 27575 ft 451 kts 131°
2026-05-09 03:38 44.62979 -81.07492 26966 ft 450 kts 131°
2026-05-09 03:38 44.61165 -81.03933 26111 ft 447 kts 130°
2026-05-09 03:38 44.59396 -81.00464 25528 ft 437 kts 130°
2026-05-09 03:38 44.57656 -80.97057 25195 ft 422 kts 130°
2026-05-09 03:39 44.55971 -80.93763 24828 ft 409 kts 130°
2026-05-09 03:39 44.54333 -80.90561 24446 ft 398 kts 130°
2026-05-09 03:39 44.52736 -80.87445 24076 ft 388 kts 130°
2026-05-09 03:39 44.51168 -80.84389 23733 ft 385 kts 130°
2026-05-09 03:40 44.49605 -80.81344 23356 ft 384 kts 130°
2026-05-09 03:40 44.48045 -80.78310 22917 ft 383 kts 130°
2026-05-09 03:40 44.46495 -80.75298 22567 ft 380 kts 130°
2026-05-09 03:40 44.44955 -80.72307 22208 ft 377 kts 130°
2026-05-09 03:41 44.43426 -80.69343 21864 ft 374 kts 130°
2026-05-09 03:41 44.41910 -80.66404 21511 ft 371 kts 130°
2026-05-09 03:41 44.40403 -80.63487 21171 ft 368 kts 130°
2026-05-09 03:41 44.38927 -80.60634 20833 ft 365 kts 130°
2026-05-09 03:42 44.37445 -80.57770 20490 ft 363 kts 130°
2026-05-09 03:42 44.35971 -80.54924 20144 ft 360 kts 131°
2026-05-09 03:42 44.34507 -80.52101 19818 ft 358 kts 131°
2026-05-09 03:42 44.33046 -80.49287 19483 ft 355 kts 131°
2026-05-09 03:43 44.31598 -80.46501 19152 ft 354 kts 131°
2026-05-09 03:43 44.30155 -80.43726 18824 ft 352 kts 131°
2026-05-09 03:43 44.28721 -80.40970 18499 ft 350 kts 131°
2026-05-09 03:43 44.27294 -80.38231 18173 ft 348 kts 131°
2026-05-09 03:44 44.25873 -80.35506 17791 ft 346 kts 131°
2026-05-09 03:44 44.24458 -80.32795 17451 ft 344 kts 130°
2026-05-09 03:44 44.23057 -80.30113 17120 ft 341 kts 130°
2026-05-09 03:44 44.21667 -80.27455 16800 ft 338 kts 130°
2026-05-09 03:45 44.20284 -80.24814 16478 ft 338 kts 130°
2026-05-09 03:45 44.18902 -80.22174 16135 ft 342 kts 130°
2026-05-09 03:45 44.17422 -80.19588 15763 ft 339 kts 141°
2026-05-09 03:45 44.15671 -80.17420 15449 ft 335 kts 143°
2026-05-09 03:46 44.13930 -80.15273 15146 ft 332 kts 143°
2026-05-09 03:46 44.12213 -80.13137 14813 ft 330 kts 142°
2026-05-09 03:46 44.10509 -80.11011 14486 ft 328 kts 142°
2026-05-09 03:46 44.08837 -80.08921 14170 ft 326 kts 142°
2026-05-09 03:47 44.07153 -80.06817 13842 ft 324 kts 142°
2026-05-09 03:47 44.05479 -80.04727 13496 ft 323 kts 142°
2026-05-09 03:47 44.03812 -80.02647 13135 ft 321 kts 142°
2026-05-09 03:47 44.02152 -80.00579 12826 ft 317 kts 142°
2026-05-09 03:48 44.00365 -79.98836 12471 ft 313 kts 154°
2026-05-09 03:48 43.98492 -79.97255 12100 ft 315 kts 152°
2026-05-09 03:48 43.96629 -79.95634 11721 ft 315 kts 152°
2026-05-09 03:48 43.94785 -79.94008 11385 ft 313 kts 152°
2026-05-09 03:49 43.92982 -79.92405 11041 ft 312 kts 151°
2026-05-09 03:49 43.91162 -79.90779 10660 ft 312 kts 151°
2026-05-09 03:49 43.89336 -79.89146 10253 ft 312 kts 151°
2026-05-09 03:49 43.87510 -79.87510 9845 ft 313 kts 151°
2026-05-09 03:50 43.85678 -79.85870 9407 ft 314 kts 151°
2026-05-09 03:50 43.83898 -79.84104 8944 ft 318 kts 141°
2026-05-09 03:50 43.82301 -79.81967 8467 ft 320 kts 139°
2026-05-09 03:50 43.80709 -79.79834 8030 ft 314 kts 139°
2026-05-09 03:51 43.79154 -79.77770 7630 ft 303 kts 139°
2026-05-09 03:51 43.77666 -79.75797 7266 ft 293 kts 137°
2026-05-09 03:51 43.76610 -79.73450 6852 ft 289 kts 106°
2026-05-09 03:51 43.76602 -79.70737 6478 ft 281 kts 72°
2026-05-09 03:52 43.77512 -79.68489 6157 ft 266 kts 45°
2026-05-09 03:52 43.78739 -79.66708 6100 ft 246 kts 44°
2026-05-09 03:52 43.79851 -79.65066 6114 ft 222 kts 43°
2026-05-09 03:52 43.80916 -79.63506 6057 ft 228 kts 43°
2026-05-09 03:53 43.82022 -79.61889 5953 ft 233 kts 43°
2026-05-09 03:53 43.83107 -79.60258 5823 ft 229 kts 50°
2026-05-09 03:53 43.83689 -79.58229 5693 ft 229 kts 86°
2026-05-09 03:53 43.83626 -79.56030 5664 ft 229 kts 96°
2026-05-09 03:54 43.83472 -79.53850 5626 ft 223 kts 97°
2026-05-09 03:54 43.83327 -79.51791 5579 ft 217 kts 97°
2026-05-09 03:54 43.83164 -79.49666 5113 ft 227 kts 102°
2026-05-09 03:54 43.82487 -79.47675 4396 ft 235 kts 135°
2026-05-09 03:55 43.81134 -79.46457 3749 ft 234 kts 167°
2026-05-09 03:55 43.79576 -79.46447 3475 ft 218 kts 198°
2026-05-09 03:55 43.78261 -79.47284 3326 ft 202 kts 218°
2026-05-09 03:55 43.77512 -79.48810 3150 ft 189 kts 253°
2026-05-09 03:56 43.77468 -79.50628 2963 ft 190 kts 269°
2026-05-09 03:56 43.77266 -79.52393 2751 ft 184 kts 241°
2026-05-09 03:56 43.76523 -79.53812 2570 ft 183 kts 223°
2026-05-09 03:56 43.75566 -79.54954 2362 ft 180 kts 218°
2026-05-09 03:57 43.74637 -79.56013 2132 ft 164 kts 220°
2026-05-09 03:57 43.73883 -79.57068 1918 ft 145 kts 225°
2026-05-09 03:57 43.73223 -79.58054 1771 ft 138 kts 225°
2026-05-09 03:57 43.72572 -79.59028 1564 ft 137 kts 225°
2026-05-09 03:58 43.71923 -79.59959 1360 ft 139 kts 222°
2026-05-09 03:58 43.71205 -79.60910 1162 ft 142 kts 222°
2026-05-09 03:58 43.70513 -79.61890 925 ft 143 kts 225°
2026-05-09 03:58 43.69833 -79.62888 720 ft 145 kts 224°
2026-05-09 03:59 43.69157 -79.63868 570 ft 132 kts 224°
2026-05-09 03:59 43.68688 -79.64545 570 ft 63 kts 227°
2026-05-09 03:59 43.68504 -79.64783 568 ft 13 kts 195°
2026-05-09 03:59 43.68430 -79.64725 567 ft 13 kts 136°
2026-05-09 04:00 43.68383 -79.64625 573 ft 13 kts 82°
2026-05-09 04:00 43.68436 -79.64519 572 ft 15 kts 47°
2026-05-09 04:00 43.68517 -79.64407 568 ft 18 kts 46°
2026-05-09 04:00 43.68610 -79.64272 571 ft 20 kts 46°
2026-05-09 04:01 43.68674 -79.64102 568 ft 22 kts 90°
2026-05-09 04:01 43.68671 -79.63890 571 ft 22 kts 91°
2026-05-09 04:01 43.68664 -79.63673 572 ft 24 kts 92°
2026-05-09 04:01 43.68721 -79.63452 574 ft 27 kts 47°
2026-05-09 04:02 43.68786 -79.63284 567 ft 13 kts 123°
2026-05-09 04:02 43.68720 -79.63203 565 ft 14 kts 137°
2026-05-09 04:02 43.68640 -79.63101 564 ft 18 kts 137°
2026-05-09 04:02 43.68541 -79.62973 569 ft 21 kts 136°
2026-05-09 04:03 43.68432 -79.62829 566 ft 23 kts 136°
2026-05-09 04:03 43.68314 -79.62675 568 ft 24 kts 137°
2026-05-09 04:03 43.68188 -79.62514 566 ft 26 kts 139°
2026-05-09 04:03 43.68050 -79.62340 565 ft 27 kts 136°
2026-05-09 04:04 43.67920 -79.62168 574 ft 18 kts 128°
2026-05-09 04:04 43.67967 -79.62027 568 ft 19 kts 50°
2026-05-09 04:04 43.68033 -79.61864 564 ft 21 kts 46°
2026-05-09 04:04 43.68067 -79.61773 564 ft 10 kts 115°
2026-05-09 04:05 43.68034 -79.61722 565 ft 0 kts 136°